When you browse on this site, cookies collect data to enhance your experience and personalize the content and advertising you see.
Visit our Privacy Policy to learn more. By continuing to use the site, you agree to this use of cookies and data.
  • In Belgium
  • List of Countries
  • For 7 days
  • Water Temperature
  • Satellite Maps
  • Weather Map
  • Weather Widgets
  • user-avatar
    Login

    Hourly Weather Proszkow

    Today, 23 February, Saturday

    Time Temperature Precipitation Wind Pressure Humidity
    00:00 -3°C° 0 mm 2 mps 770 mmHg 50%
    01:00 -2°C° 0 mm 1 mps 771 mmHg 48%
    02:00 -2°C° 0 mm 1 mps 770 mmHg 47%
    03:00 -2°C° 0 mm 1 mps 770 mmHg 47%
    04:00 -2°C° 0 mm 1 mps 770 mmHg 46%
    05:00 -2°C° 0 mm 1 mps 770 mmHg 46%
    06:00 -2°C° 0 mm 1 mps 770 mmHg 46%
    07:00 -3°C° 0 mm 1 mps 771 mmHg 45%
    08:00 -2°C° 0 mm 1 mps 771 mmHg 41%
    09:00 -1°C° 0 mm 1 mps 771 mmHg 37%
    10:00 -3°C° 0 mm 2 mps 771 mmHg 33%
    11:00 -2°C° 0 mm 2 mps 770 mmHg 30%
    12:00 -1°C° 0 mm 2 mps 770 mmHg 27%
    13:00 +1°C° 0 mm 2 mps 770 mmHg 24%
    14:00 +1°C° 0 mm 2 mps 769 mmHg 26%
    15:00 +1°C° 0 mm 2 mps 769 mmHg 27%
    16:00 +2°C° 0 mm 2 mps 768 mmHg 28%
    17:00 +1°C° 0 mm 2 mps 768 mmHg 31%
    18:00 -1°C° 0 mm 2 mps 768 mmHg 34%
    19:00 -2°C° 0 mm 2 mps 768 mmHg 38%
    20:00 -2°C° 0 mm 2 mps 768 mmHg 38%
    21:00 -3°C° 0 mm 2 mps 768 mmHg 38%
    22:00 -3°C° 0 mm 2 mps 768 mmHg 38%
    23:00 -1°C° 0 mm 1 mps 768 mmHg 37%

    Tomorrow, 24 February, Sunday

    Time Temperature Precipitation Wind Pressure Humidity
    00:00 0°C° 0 mm 1 mps 768 mmHg 36%
    01:00 0°C° 0 mm 1 mps 767 mmHg 36%
    02:00 0°C° 0 mm 1 mps 767 mmHg 34%
    03:00 0°C° 0 mm 1 mps 767 mmHg 33%
    04:00 -1°C° 0 mm 0 mps 767 mmHg 32%
    05:00 -1°C° 0 mm 0 mps 766 mmHg 32%
    06:00 0°C° 0 mm 1 mps 766 mmHg 32%
    07:00 +1°C° 0 mm 1 mps 766 mmHg 32%
    08:00 +2°C° 0 mm 1 mps 766 mmHg 30%
    09:00 +3°C° 0 mm 1 mps 766 mmHg 29%
    10:00 +4°C° 0 mm 1 mps 766 mmHg 28%
    11:00 +4°C° 0 mm 2 mps 766 mmHg 28%
    12:00 +5°C° 0 mm 2 mps 766 mmHg 27%
    13:00 +6°C° 0 mm 2 mps 766 mmHg 27%
    14:00 +6°C° 0 mm 2 mps 766 mmHg 32%
    15:00 +6°C° 0 mm 2 mps 765 mmHg 38%
    16:00 +6°C° 0 mm 2 mps 765 mmHg 43%
    17:00 +5°C° 0 mm 2 mps 765 mmHg 47%
    18:00 +3°C° 0 mm 2 mps 765 mmHg 50%
    19:00 +1°C° 0 mm 3 mps 765 mmHg 54%
    20:00 +1°C° 0 mm 3 mps 765 mmHg 56%
    21:00 +1°C° 0 mm 3 mps 765 mmHg 58%
    22:00 0°C° 0 mm 3 mps 765 mmHg 60%
    23:00 0°C° 0 mm 3 mps 765 mmHg 62%

    Day after tomorrow, 25 February, Monday

    Time Temperature Precipitation Wind Pressure Humidity
    00:00 0°C° 0 mm 3 mps 765 mmHg 63%
    01:00 0°C° 0 mm 3 mps 765 mmHg 65%
    02:00 0°C° 0 mm 3 mps 765 mmHg 66%
    03:00 0°C° 0 mm 3 mps 765 mmHg 67%
    04:00 0°C° 0 mm 3 mps 765 mmHg 67%
    05:00 0°C° 0 mm 3 mps 765 mmHg 68%
    06:00 0°C° 0 mm 3 mps 765 mmHg 69%
    07:00 -1°C° 0 mm 3 mps 764 mmHg 70%
    08:00 0°C° 0 mm 4 mps 765 mmHg 66%
    09:00 +3°C° 0 mm 4 mps 765 mmHg 62%
    10:00 +3°C° 0 mm 5 mps 765 mmHg 57%
    11:00 +5°C° 0 mm 5 mps 764 mmHg 57%
    12:00 +7°C° 0 mm 5 mps 764 mmHg 57%
    13:00 +8°C° 0 mm 5 mps 764 mmHg 57%
    14:00 +8°C° 0 mm 5 mps 763 mmHg 59%
    15:00 +8°C° 0 mm 4 mps 763 mmHg 60%
    16:00 +8°C° 0 mm 4 mps 763 mmHg 62%
    17:00 +7°C° 0 mm 4 mps 763 mmHg 67%
    18:00 +6°C° 0 mm 4 mps 763 mmHg 72%
    19:00 +4°C° 0 mm 4 mps 763 mmHg 77%
    20:00 +4°C° 0 mm 4 mps 763 mmHg 79%
    21:00 +3°C° 0 mm 4 mps 763 mmHg 82%
    22:00 +3°C° 0 mm 4 mps 763 mmHg 84%
    23:00 +3°C° 0 mm 4 mps 763 mmHg 85%

    26 February, Tuesday

    Time Temperature Precipitation Wind Pressure Humidity
    00:00 +3°C° 0 mm 4 mps 763 mmHg 87%
    01:00 +1°C° 0 mm 4 mps 762 mmHg 88%
    02:00 +1°C° 0 mm 4 mps 762 mmHg 88%
    03:00 +3°C° 0 mm 4 mps 762 mmHg 89%
    04:00 +3°C° 0 mm 4 mps 761 mmHg 89%
    05:00 +2°C° 0 mm 5 mps 761 mmHg 89%
    06:00 +2°C° 0 mm 5 mps 761 mmHg 88%
    07:00 +1°C° 0 mm 5 mps 761 mmHg 87%
    08:00 +3°C° 0 mm 6 mps 761 mmHg 81%
    09:00 +4°C° 0 mm 6 mps 760 mmHg 75%
    10:00 +5°C° 0 mm 7 mps 760 mmHg 69%
    11:00 +6°C° 0 mm 7 mps 760 mmHg 65%
    12:00 +8°C° 0 mm 7 mps 760 mmHg 60%
    13:00 +10°C° 0 mm 7 mps 759 mmHg 56%
    14:00 +10°C° 0 mm 7 mps 759 mmHg 56%
    15:00 +10°C° 0 mm 6 mps 759 mmHg 55%
    16:00 +10°C° 0 mm 6 mps 759 mmHg 55%
    17:00 +9°C° 0 mm 5 mps 759 mmHg 59%
    18:00 +8°C° 0 mm 5 mps 759 mmHg 63%
    19:00 +6°C° 0 mm 4 mps 759 mmHg 67%
    20:00 +6°C° 0 mm 4 mps 759 mmHg 69%
    21:00 +5°C° 0 mm 4 mps 760 mmHg 71%
    22:00 +5°C° 0 mm 4 mps 760 mmHg 73%
    23:00 +4°C° 0 mm 4 mps 760 mmHg 74%

    27 February, Wednesday

    Time Temperature Precipitation Wind Pressure Humidity
    00:00 +4°C° 0 mm 4 mps 759 mmHg 76%
    01:00 +4°C° 0 mm 4 mps 759 mmHg 77%
    02:00 +3°C° 0 mm 4 mps 759 mmHg 78%
    03:00 +3°C° 0 mm 3 mps 759 mmHg 80%
    04:00 +2°C° 0 mm 3 mps 759 mmHg 81%
    05:00 +2°C° 0 mm 3 mps 759 mmHg 82%
    06:00 +2°C° 0 mm 3 mps 758 mmHg 82%
    07:00 +2°C° 0 mm 3 mps 758 mmHg 82%
    08:00 +3°C° 0 mm 4 mps 758 mmHg 75%
    09:00 +5°C° 0 mm 4 mps 758 mmHg 68%
    10:00 +7°C° 0 mm 5 mps 758 mmHg 61%
    11:00 +8°C° 0 mm 5 mps 757 mmHg 57%
    12:00 +10°C° 0 mm 5 mps 757 mmHg 53%
    13:00 +12°C° 0 mm 5 mps 756 mmHg 49%
    14:00 +12°C° 0 mm 5 mps 756 mmHg 49%
    15:00 +12°C° 0 mm 5 mps 755 mmHg 49%
    16:00 +12°C° 0 mm 5 mps 755 mmHg 49%
    17:00 +11°C° 0 mm 4 mps 755 mmHg 55%
    18:00 +8°C° 0 mm 4 mps 755 mmHg 60%
    19:00 +8°C° 0 mm 3 mps 755 mmHg 65%
    20:00 +8°C° 0 mm 3 mps 754 mmHg 66%
    21:00 +7°C° 0 mm 3 mps 754 mmHg 68%
    22:00 +7°C° 0 mm 3 mps 753 mmHg 69%
    23:00 +5°C° 0 mm 3 mps 753 mmHg 67%

    28 February, Thursday

    Time Temperature Precipitation Wind Pressure Humidity
    00:00 +5°C° 0 mm 3 mps 752 mmHg 65%
    01:00 +5°C° 0 mm 3 mps 752 mmHg 63%
    02:00 +5°C° 0 mm 3 mps 751 mmHg 60%
    03:00 +5°C° 0 mm 4 mps 750 mmHg 58%
    04:00 +6°C° 0 mm 4 mps 750 mmHg 56%
    05:00 +5°C° 0 mm 4 mps 749 mmHg 57%
    06:00 +5°C° 0 mm 5 mps 749 mmHg 57%
    07:00 +5°C° 0 mm 5 mps 748 mmHg 58%
    08:00 +6°C° 0 mm 7 mps 748 mmHg 60%
    09:00 +7°C° 0 mm 8 mps 747 mmHg 62%
    10:00 +8°C° 0 mm 9 mps 747 mmHg 64%
    11:00 +8°C° 0 mm 10 mps 747 mmHg 67%
    12:00 +8°C° 0 mm 10 mps 747 mmHg 70%
    13:00 +7°C° 0 mm 10 mps 747 mmHg 73%
    14:00 +7°C° 0 mm 10 mps 747 mmHg 74%
    15:00 +7°C° 0 mm 10 mps 747 mmHg 74%
    16:00 +7°C° 0 mm 9 mps 747 mmHg 75%
    17:00 +7°C° 0.1 mm 9 mps 747 mmHg 75%
    18:00 +6°C° 0.1 mm 9 mps 747 mmHg 76%
    19:00 +6°C° 0.1 mm 8 mps 748 mmHg 77%
    20:00 +6°C° 0.1 mm 8 mps 748 mmHg 77%
    21:00 +6°C° 0.1 mm 8 mps 748 mmHg 78%
    22:00 +6°C° 0.1 mm 7 mps 748 mmHg 79%
    23:00 +5°C° 0.1 mm 7 mps 748 mmHg 80%
    Show more